When you browse on this site, cookies collect data to enhance your experience and personalize the content and advertising you see.
Visit our Privacy Policy to learn more. By continuing to use the site, you agree to this use of cookies and data.
  • In United Kingdom
  • List of Countries
  • For 7 days
  • Water Temperature
  • Satellite Maps
  • Weather Map
  • Weather Widgets
  • user-avatar
    Login

    Hourly Weather Pabna

    Today, 11 December, Tuesday

    Time Temperature Precipitation Wind Pressure Humidity
    00:00 +21°C° 0 mm 1 mps 758 mmHg 48%
    01:00 +21°C° 0 mm 1 mps 758 mmHg 50%
    02:00 +21°C° 0 mm 1 mps 758 mmHg 52%
    03:00 +20°C° 0 mm 1 mps 758 mmHg 53%
    04:00 +20°C° 0 mm 1 mps 758 mmHg 56%
    05:00 +20°C° 0 mm 1 mps 758 mmHg 58%
    06:00 +19°C° 0 mm 1 mps 757 mmHg 64%
    07:00 +21°C° 0 mm 1 mps 758 mmHg 59%
    08:00 +22°C° 0 mm 1 mps 758 mmHg 55%
    09:00 +24°C° 0 mm 2 mps 759 mmHg 51%
    10:00 +25°C° 0 mm 2 mps 759 mmHg 46%
    11:00 +27°C° 0 mm 2 mps 759 mmHg 41%
    12:00 +30°C° 0 mm 1 mps 758 mmHg 31%
    13:00 +30°C° 0 mm 2 mps 758 mmHg 30%
    14:00 +30°C° 0 mm 2 mps 757 mmHg 29%
    15:00 +31°C° 0 mm 2 mps 756 mmHg 28%
    16:00 +29°C° 0 mm 2 mps 756 mmHg 32%
    17:00 +27°C° 0 mm 2 mps 756 mmHg 35%
    18:00 +26°C° 0 mm 2 mps 757 mmHg 38%
    19:00 +25°C° 0 mm 2 mps 757 mmHg 40%
    20:00 +25°C° 0 mm 2 mps 757 mmHg 42%
    21:00 +24°C° 0 mm 2 mps 758 mmHg 43%
    22:00 +24°C° 0 mm 2 mps 758 mmHg 44%
    23:00 +23°C° 0 mm 1 mps 758 mmHg 45%

    Tomorrow, 12 December, Wednesday

    Time Temperature Precipitation Wind Pressure Humidity
    00:00 +23°C° 0 mm 1 mps 758 mmHg 46%
    01:00 +23°C° 0 mm 1 mps 758 mmHg 48%
    02:00 +22°C° 0 mm 1 mps 758 mmHg 49%
    03:00 +22°C° 0 mm 1 mps 758 mmHg 51%
    04:00 +22°C° 0 mm 1 mps 758 mmHg 52%
    05:00 +21°C° 0 mm 1 mps 758 mmHg 54%
    06:00 +21°C° 0 mm 1 mps 758 mmHg 55%
    07:00 +22°C° 0 mm 1 mps 759 mmHg 51%
    08:00 +24°C° 0 mm 1 mps 760 mmHg 48%
    09:00 +25°C° 0 mm 1 mps 760 mmHg 44%
    10:00 +27°C° 0 mm 1 mps 760 mmHg 40%
    11:00 +28°C° 0 mm 1 mps 760 mmHg 37%
    12:00 +29°C° 0 mm 1 mps 760 mmHg 33%
    13:00 +30°C° 0 mm 2 mps 759 mmHg 32%
    14:00 +30°C° 0 mm 2 mps 759 mmHg 32%
    15:00 +31°C° 0 mm 2 mps 758 mmHg 31%
    16:00 +29°C° 0 mm 2 mps 758 mmHg 34%
    17:00 +28°C° 0 mm 2 mps 758 mmHg 37%
    18:00 +26°C° 0 mm 2 mps 758 mmHg 40%
    19:00 +26°C° 0 mm 2 mps 758 mmHg 42%
    20:00 +25°C° 0 mm 2 mps 759 mmHg 44%
    21:00 +24°C° 0 mm 2 mps 759 mmHg 46%
    22:00 +24°C° 0 mm 2 mps 759 mmHg 47%
    23:00 +23°C° 0 mm 2 mps 759 mmHg 49%

    Day after tomorrow, 13 December, Thursday

    Time Temperature Precipitation Wind Pressure Humidity
    00:00 +23°C° 0 mm 2 mps 759 mmHg 51%
    01:00 +21°C° 0 mm 2 mps 759 mmHg 53%
    02:00 +21°C° 0 mm 2 mps 759 mmHg 55%
    03:00 +21°C° 0 mm 2 mps 759 mmHg 57%
    04:00 +20°C° 0 mm 2 mps 759 mmHg 60%
    05:00 +20°C° 0 mm 2 mps 759 mmHg 62%
    06:00 +19°C° 0 mm 2 mps 759 mmHg 65%
    07:00 +21°C° 0 mm 2 mps 760 mmHg 61%
    08:00 +23°C° 0 mm 2 mps 761 mmHg 57%
    09:00 +24°C° 0 mm 2 mps 762 mmHg 52%
    10:00 +26°C° 0 mm 2 mps 761 mmHg 46%
    11:00 +27°C° 0 mm 2 mps 761 mmHg 40%
    12:00 +29°C° 0 mm 2 mps 761 mmHg 34%
    13:00 +29°C° 0 mm 2 mps 760 mmHg 32%
    14:00 +30°C° 0 mm 2 mps 759 mmHg 30%
    15:00 +30°C° 0 mm 3 mps 758 mmHg 28%
    16:00 +29°C° 0 mm 2 mps 758 mmHg 30%
    17:00 +27°C° 0 mm 2 mps 758 mmHg 33%
    18:00 +26°C° 0 mm 2 mps 758 mmHg 35%
    19:00 +25°C° 0 mm 2 mps 759 mmHg 37%
    20:00 +24°C° 0 mm 2 mps 759 mmHg 39%
    21:00 +24°C° 0 mm 2 mps 760 mmHg 40%
    22:00 +23°C° 0 mm 2 mps 760 mmHg 43%
    23:00 +23°C° 0 mm 2 mps 760 mmHg 45%

    14 December, Friday

    Time Temperature Precipitation Wind Pressure Humidity
    00:00 +21°C° 0 mm 3 mps 760 mmHg 48%
    01:00 +21°C° 0 mm 3 mps 760 mmHg 50%
    02:00 +20°C° 0 mm 3 mps 760 mmHg 52%
    03:00 +20°C° 0 mm 3 mps 759 mmHg 54%
    04:00 +19°C° 0 mm 3 mps 759 mmHg 55%
    05:00 +19°C° 0 mm 3 mps 760 mmHg 56%
    06:00 +18°C° 0 mm 3 mps 760 mmHg 57%
    07:00 +20°C° 0 mm 3 mps 761 mmHg 53%
    08:00 +21°C° 0 mm 3 mps 761 mmHg 49%
    09:00 +22°C° 0 mm 4 mps 762 mmHg 45%
    10:00 +25°C° 0 mm 4 mps 762 mmHg 40%
    11:00 +27°C° 0 mm 4 mps 761 mmHg 35%
    12:00 +29°C° 0 mm 5 mps 761 mmHg 29%
    13:00 +29°C° 0 mm 5 mps 760 mmHg 27%
    14:00 +29°C° 0 mm 4 mps 760 mmHg 25%
    15:00 +30°C° 0 mm 4 mps 759 mmHg 24%
    16:00 +28°C° 0 mm 4 mps 759 mmHg 27%
    17:00 +26°C° 0 mm 3 mps 759 mmHg 30%
    18:00 +25°C° 0 mm 3 mps 759 mmHg 33%
    19:00 +24°C° 0 mm 3 mps 760 mmHg 34%
    20:00 +22°C° 0 mm 3 mps 760 mmHg 36%
    21:00 +22°C° 0 mm 3 mps 761 mmHg 37%
    22:00 +21°C° 0 mm 3 mps 761 mmHg 37%
    23:00 +21°C° 0 mm 3 mps 761 mmHg 38%

    15 December, Saturday

    Time Temperature Precipitation Wind Pressure Humidity
    00:00 +21°C° 0 mm 3 mps 761 mmHg 38%
    01:00 +21°C° 0 mm 3 mps 761 mmHg 38%
    02:00 +21°C° 0 mm 3 mps 760 mmHg 38%
    03:00 +21°C° 0 mm 3 mps 760 mmHg 38%
    04:00 +20°C° 0 mm 3 mps 760 mmHg 39%
    05:00 +20°C° 0 mm 3 mps 760 mmHg 39%
    06:00 +20°C° 0 mm 3 mps 760 mmHg 40%
    07:00 +20°C° 0 mm 3 mps 761 mmHg 40%
    08:00 +21°C° 0 mm 3 mps 762 mmHg 39%
    09:00 +22°C° 0 mm 3 mps 763 mmHg 39%
    10:00 +24°C° 0 mm 3 mps 762 mmHg 37%
    11:00 +23°C° 0 mm 4 mps 762 mmHg 35%
    12:00 +25°C° 0 mm 4 mps 762 mmHg 34%
    13:00 +25°C° 0 mm 3 mps 761 mmHg 34%
    14:00 +25°C° 0 mm 3 mps 761 mmHg 35%
    15:00 +25°C° 0 mm 2 mps 760 mmHg 35%
    16:00 +24°C° 0 mm 2 mps 761 mmHg 36%
    17:00 +24°C° 0 mm 1 mps 761 mmHg 36%
    18:00 +23°C° 0 mm 1 mps 761 mmHg 37%
    19:00 +23°C° 0 mm 1 mps 762 mmHg 37%
    20:00 +23°C° 0 mm 1 mps 762 mmHg 37%
    21:00 +23°C° 0 mm 1 mps 762 mmHg 37%
    22:00 +23°C° 0 mm 2 mps 762 mmHg 37%
    23:00 +23°C° 0 mm 2 mps 762 mmHg 37%

    16 December, Sunday

    Time Temperature Precipitation Wind Pressure Humidity
    00:00 +22°C° 0 mm 3 mps 762 mmHg 37%
    01:00 +21°C° 0 mm 3 mps 762 mmHg 39%
    02:00 +21°C° 0 mm 3 mps 762 mmHg 41%
    03:00 +21°C° 0 mm 3 mps 761 mmHg 43%
    04:00 +21°C° 0 mm 2 mps 761 mmHg 44%
    05:00 +21°C° 0 mm 2 mps 761 mmHg 46%
    06:00 +20°C° 0 mm 2 mps 761 mmHg 48%
    07:00 +20°C° 0 mm 2 mps 762 mmHg 49%
    08:00 +21°C° 0 mm 2 mps 763 mmHg 49%
    09:00 +21°C° 0 mm 2 mps 763 mmHg 50%
    10:00 +21°C° 0 mm 2 mps 763 mmHg 50%
    11:00 +21°C° 0 mm 2 mps 763 mmHg 49%
    12:00 +21°C° 0 mm 2 mps 762 mmHg 49%
    13:00 +21°C° 0 mm 2 mps 762 mmHg 49%
    14:00 +21°C° 0 mm 2 mps 761 mmHg 48%
    15:00 +21°C° 0 mm 2 mps 761 mmHg 48%
    16:00 +21°C° 0 mm 2 mps 761 mmHg 47%
    17:00 +20°C° 0 mm 2 mps 761 mmHg 47%
    18:00 +21°C° 0 mm 1 mps 761 mmHg 46%
    19:00 +21°C° 0 mm 1 mps 761 mmHg 45%
    20:00 +21°C° 0 mm 1 mps 761 mmHg 44%
    21:00 +21°C° 0 mm 1 mps 761 mmHg 44%
    22:00 +20°C° 0 mm 2 mps 761 mmHg 43%
    23:00 +20°C° 0 mm 2 mps 761 mmHg 43%
    Show more